Flag for Honduras Weather past 2 weeks in Choloma, Honduras

Now
73 °F

Passing clouds.


Feels Like: 68 °F
Forecast: 74 / 87 °F
Wind: 6 mph from Southwest

Location: La Mesa San Pedro Sula

Current Time: Aug 21, 2014 at 2:51:54 AM

Latest Report: Aug 21, 2014 at 2:00 AM


Visibility: N/A

Pressure: 29.95 "Hg

Humidity: 100%

Dew point: 73 °F

Location of CholomaLocation

Historic Weather in Choloma — Graph

°F

Choloma temperature yesterday

Maximum temperature yesterday: 91 °F (at 1:00 PM)
Minimum temperature yesterday: 72 °F (at 3:00 AM)
Average temperature yesterday: 78 °F

Past Weeks' High & Low Weather Summary

 TemperatureHumidityPressure
High95 °F (Aug 6, 1:00 PM)100% (Aug 6, 2:00 AM)30.04 "Hg (Aug 6, 2:00 AM)
Low72 °F (Aug 14, 5:00 PM)41% (Aug 13, 1:00 PM)29.83 "Hg (Aug 8, 5:00 PM)
Average82 °F81%29.94 "Hg
* Reported Aug 6 1:00 AM — Aug 21 1:00 AM, Choloma, Weather by CustomWeather, © 2014

Note: Actual official high and low records may vary slightly from our data, if they occured in-between our weather recording intervals... More about our weather records

Advertising

Choloma weather history for previous 24 hours

 ConditionsComfort  
Time TempWeatherWind HumidityBarometerVisibility
1:00 AM
Aug 21
75 °FPassing clouds.No wind94%29.98 "HgN/A
12:00 AM75 °FPassing clouds.No wind100%29.98 "HgN/A
11:00 PM
Aug 20
75 °FPassing clouds.No wind100%30.01 "HgN/A
10:00 PM75 °FPassing clouds.No wind100%30.01 "HgN/A
9:00 PM75 °FPassing clouds.No wind100%29.98 "HgN/A
8:00 PM75 °FPassing clouds.No wind100%29.98 "HgN/A
7:00 PM77 °FPartly cloudy.3 mph94%29.95 "HgN/A
6:00 PM77 °FBroken clouds.No wind89%29.92 "HgN/A
5:00 PM77 °FBroken clouds.No wind94%29.95 "HgN/A
4:00 PM75 °FBroken clouds.5 mph100%29.92 "HgN/A
3:00 PM79 °FThunderstorms. Partly sunny.10 mph89%29.95 "Hg2 mi
2:00 PM82 °FThunderstorms. Broken clouds.6 mph70%29.92 "Hg4 mi
1:00 PM91 °FBroken clouds.5 mph56%29.92 "HgN/A
12:00 PM90 °FScattered clouds.5 mph63%29.95 "HgN/A
11:00 AM88 °FScattered clouds.2 mph62%29.98 "HgN/A
10:00 AM86 °FScattered clouds.No wind70%29.98 "HgN/A
9:00 AM81 °FPartly sunny.No wind84%29.98 "HgN/A
8:00 AM75 °FPartly sunny.3 mph89%29.98 "HgN/A
7:00 AM73 °FScattered clouds.3 mph100%29.95 "HgN/A
6:00 AM72 °FScattered clouds.5 mph100%29.95 "HgN/A
3:00 AM72 °FMild.No wind100%29.89 "HgN/A
Weather by CustomWeather, © 2014

See weather overviewHow to use our weather pages